DELTA 1 DEB, 40762

Orbit data source: Space-Track

DELTA 1 DEB, 40762 is space debris in LEO originally from a launch on Thu, 29 Jul 1976 UTC launched from the Air Force Western Test Range (AFWTR). Debris objects in space refer to the collection of defunct objects orbiting the Earth. Examples of debris include non-operational satellites, rocket bodies, and fragments generated from explosions, collisions, or faulty payload assembly.

Loading next visibility...
Identifier
40762, 1976-077GF
Orbit
LEO
Country
Flag of USUS
Related business
Manufacturer
Unknown
Mission
Spacecraft
Bus & Motor
Unknown
Mass
Unknown
Launch date (UTC)
1976-07-29 (49 years ago)
Launch vehicle
Unknown
Launch site
Air Force Western Test Range (AFWTR)
Object type
Payload
Rocket body
Debris
Shape & HBR
Unknown shape, 1.1 m
Radar Cross Section
Small (<0.1 m²)

Expand to show TLE details & history
Last TLE update: 2 days ago

TLE from 2 days ago
0 DELTA 1 DEB
1 40762U 76077GF  25300.31253435 -.00000000  00000-0  49721-3 0  9999
2 40762 102.3495  70.4486 0327723  58.3627 304.8940 11.83400806512499
Epoch: 2025-10-27T07:30Z
TLE epoch observation values (Epoch: 2025-10-27T07:30:02.967Z)
Latitude
-0.00011°
Longitude
-77.97992°
Altitude
1,612.03 km
Speed
7.128 km/s
True Right ascension
04h 41m 47s
True Declination
0° 00' 00"
Sunlit
Object was in full shadow at epoch
Visualization orbit readout
Latitude
Unknown
Longitude
Unknown
Altitude
Unknown
Speed
Unknown
Apparent Right ascension
Unknown
Apparent Declination
Unknown
Sunlit
N/A
Visualization observer readout
Local Sidereal Time
19:27:04
Azimuth
Unknown
Elevation
Unknown
Doppler factor
Unknown
Orbital elements
Apogee altitude
2,020.211 km
Perigee altitude
1,487.213 km
Semi-major axis
8,131.849 km
Eccentricity
0.03277
Inclination
102.3495°
RAAN
70.4486°
Arg. of periapsis
58.3627°
True anomaly
301.74151°
Mean anomaly
304.894°
Eccentric anomaly
303.32504°
Mean motion
2.95978 °/min
Orbital period
121.63 mins
BSTAR
0.00049721
Loading maneuver chart data...
Computing Atmospheric mass density...
Loading historical data...
Loading historical data...
Loading historical data...
Loading historical data...
Loading historical data...
Loading historical data...
Loading historical data...

Documentation

Showing up to 5 results
|